Regional Weather Roundup
Issued by NWS

Home | Current Version | Previous Version | Text Only | Print | Product List | Glossary On
Versions: 1 2 3 4 5 6 7 8 9 10 11 12 13 14 15 16 17 18 19 20 21 22 23 24 25 26 27 28 29 30 31 32 33 34 35 36 37 38 39 40 41 42 43 44 45 46 47 48 49 50
000
ASUS43 KLSX 081157
RWRMO

WEATHER SUMMARY FOR MISSOURI
NATIONAL WEATHER SERVICE SPRINGFIELD MO
600 AM CST THU DEC 08 2016

NOTE: "FAIR" INDICATES FEW OR NO CLOUDS BELOW 12,000 FEET WITH NO
       SIGNIFICANT WEATHER AND/OR OBSTRUCTIONS TO VISIBILITY.
       CURRENT SKY AND/OR WEATHER CONDITIONS ARE NOT AVAILABLE FOR
       CHILLICOTHE AND FARMINGTON.

MOZ001>031-035>038-043-044-053-054-081300-
...NORTHERN AND WESTERN MISSOURI...

CITY           SKY/WX    TMP DP  RH WIND       PRES   REMARKS
KANSAS CTY INT CLEAR     15   5  64 NW12      30.53R WCI   2
6HR MIN TEMP:  15; 6HR MAX TEMP:  19;

LEE`S SUMMIT   CLEAR     16   7  67 NW12      30.52R WCI   3
6HR MIN TEMP:  16; 6HR MAX TEMP:  21;

ST JOSEPH      CLEAR     15   5  64 NW12      30.55R WCI   2
6HR MIN TEMP:  15; 6HR MAX TEMP:  20;

CHILLICOTHE      N/A     16   7  67 NW7       30.51R WCI   6
6HR MIN TEMP:  16; 6HR MAX TEMP:  21; 6HR PCP:  0.01;


$$
MOZ066>068-077>081-088>096-101>105-081300-
...SOUTHWEST MISSOURI...

CITY           SKY/WX    TMP DP  RH WIND       PRES   REMARKS
SPRINGFIELD    PTCLDY    18  11  74 W7        30.50R WCI   9
6HR MIN TEMP:  18; 6HR MAX TEMP:  24;

JOPLIN         CLEAR     17  10  74 CALM      30.58R
6HR MIN TEMP:  17; 6HR MAX TEMP:  22;


$$
MOZ032>034-039>042-045>050-055>058-069>072-081300-
...CENTRAL MISSOURI...

CITY           SKY/WX    TMP DP  RH WIND       PRES   REMARKS
COLUMBIA       NOT AVBL
JEFFERSON CITY CLEAR     19   9  65 W10       30.50R WCI   7
6HR MIN TEMP:  19; 6HR MAX TEMP:  24;

ROLLA          PTCLDY    17  10  74 W14       30.43R WCI   3
6HR MIN TEMP:  17; 6HR MAX TEMP:  23;

SEDALIA        CLEAR     17   9  70 W8        30.51R WCI   7
6HR MIN TEMP:  17; 6HR MAX TEMP:  21;

WARRENSBURG    CLEAR     18   9  68 W8        30.52R WCI   7

$$
MOZ051-052-059>065-081300-
...EAST CENTRAL MISSOURI...

CITY           SKY/WX    TMP DP  RH WIND       PRES   REMARKS
ST LOUIS INTL  PTCLDY    22  10  60 W13G24    30.42R WCI  10
6HR MIN TEMP:  22; 6HR MAX TEMP:  28;


$$
MOZ072>076-082>087-097>100-106>115-081300-
...SOUTH CENTRAL AND SOUTHEAST MISSOURI...

CITY           SKY/WX    TMP DP  RH WIND       PRES   REMARKS
CAPE GIRARDEAU CLEAR     25  12  58 NW12      30.45R WCI  14
6HR MIN TEMP:  25; 6HR MAX TEMP:  35;

POPLAR BLUFF   PTCLDY    26  16  65 NW6       30.47R WCI  19
6HR MIN TEMP:  26; 6HR MAX TEMP:  37;

WEST PLAINS    CLEAR     20  11  68 NW6       30.47R WCI  12
6HR MIN TEMP:  20; 6HR MAX TEMP:  29;


$$



USA.gov is the U.S. government's official web portal to all federal, state and local government web resources and services.